ABY583 OMSJ-HECA

Flight info

Callsign ABY583
Flight time 3h 28m
Altitude 30000
Route SENPA N571 ALPOB L768 JBL/N0471F320 L768 VATIM L550 NOVPA N697 MENLI L677 CVO
Aircraft A320/M-SDE3FGHIRWY/LB1

Departure

Time 2026-04-23 10:04
Airport Sharjah International Airport (OMSJ)

Arrival

Time 2026-04-23 13:32
Airport Cairo International Airport (HECA)
Time Latitude Longitude Altitude Speed Heading
2026-04-23 09:45 25.32694 55.51499 115 ft 0 kts 301°
2026-04-23 09:53 25.32689 55.51507 113 ft 4 kts 306°
2026-04-23 09:54 25.32671 55.51527 115 ft 4 kts 337°
2026-04-23 09:54 25.32646 55.51531 115 ft 4 kts 19°
2026-04-23 09:54 25.32636 55.51526 115 ft 0 kts 32°
2026-04-23 09:56 25.32666 55.51547 115 ft 12 kts 32°
2026-04-23 09:57 25.32722 55.51606 115 ft 10 kts 79°
2026-04-23 09:57 25.32690 55.51674 112 ft 12 kts 123°
2026-04-23 09:57 25.32648 55.51748 113 ft 11 kts 122°
2026-04-23 09:57 25.32609 55.51814 114 ft 10 kts 122°
2026-04-23 09:58 25.32564 55.51892 114 ft 12 kts 122°
2026-04-23 09:58 25.32521 55.51967 113 ft 11 kts 122°
2026-04-23 09:58 25.32471 55.52052 114 ft 14 kts 123°
2026-04-23 09:58 25.32421 55.52139 113 ft 13 kts 122°
2026-04-23 09:59 25.32372 55.52223 112 ft 14 kts 123°
2026-04-23 09:59 25.32311 55.52326 114 ft 17 kts 123°
2026-04-23 09:59 25.32247 55.52440 112 ft 18 kts 119°
2026-04-23 09:59 25.32181 55.52558 115 ft 19 kts 123°
2026-04-23 10:00 25.32107 55.52684 115 ft 20 kts 121°
2026-04-23 10:00 25.32046 55.52795 113 ft 15 kts 123°
2026-04-23 10:00 25.31989 55.52892 114 ft 15 kts 123°
2026-04-23 10:00 25.31935 55.52985 115 ft 14 kts 123°
2026-04-23 10:01 25.31882 55.53075 114 ft 14 kts 123°
2026-04-23 10:01 25.31832 55.53164 112 ft 13 kts 119°
2026-04-23 10:01 25.31794 55.53243 114 ft 10 kts 107°
2026-04-23 10:01 25.31784 55.53313 113 ft 8 kts 96°
2026-04-23 10:02 25.31823 55.53380 112 ft 13 kts 31°
2026-04-23 10:02 25.31897 55.53430 116 ft 13 kts 31°
2026-04-23 10:02 25.31973 55.53482 115 ft 12 kts 32°
2026-04-23 10:02 25.32043 55.53510 118 ft 10 kts
2026-04-23 10:03 25.32106 55.53485 115 ft 9 kts 323°
2026-04-23 10:03 25.32131 55.53451 114 ft 10 kts 303°
2026-04-23 10:03 25.32262 55.53223 115 ft 70 kts 302°
2026-04-23 10:03 25.32798 55.52289 115 ft 143 kts 302°
2026-04-23 10:04 25.33404 55.51225 137 ft 182 kts 303°
2026-04-23 10:04 25.34085 55.50048 766 ft 181 kts 303°
2026-04-23 10:04 25.34760 55.48878 1447 ft 183 kts 303°
2026-04-23 10:04 25.35476 55.47635 1742 ft 202 kts 303°
2026-04-23 10:05 25.35993 55.46736 1858 ft 216 kts 302°
2026-04-23 10:05 25.36835 55.45267 2005 ft 232 kts 302°
2026-04-23 10:05 25.37706 55.43741 2040 ft 235 kts 302°
2026-04-23 10:05 25.38576 55.42209 2044 ft 235 kts 302°
2026-04-23 10:06 25.39446 55.40671 2045 ft 235 kts 302°
2026-04-23 10:06 25.40316 55.39142 2045 ft 235 kts 302°
2026-04-23 10:06 25.41201 55.37611 2037 ft 238 kts 299°
2026-04-23 10:06 25.41697 55.35789 2234 ft 260 kts 270°
2026-04-23 10:07 25.41467 55.33767 2850 ft 268 kts 260°
2026-04-23 10:07 25.41153 55.31719 3585 ft 272 kts 260°
2026-04-23 10:07 25.40843 55.29669 4340 ft 274 kts 260°
2026-04-23 10:07 25.40526 55.27585 5093 ft 276 kts 260°
2026-04-23 10:08 25.40205 55.25486 5832 ft 278 kts 260°
2026-04-23 10:08 25.39882 55.23372 6558 ft 279 kts 260°
2026-04-23 10:08 25.39554 55.21232 6934 ft 283 kts 260°
2026-04-23 10:09 25.38894 55.16927 7857 ft 284 kts 259°
2026-04-23 10:09 25.38562 55.14787 8510 ft 287 kts 259°
2026-04-23 10:09 25.38221 55.12600 9145 ft 289 kts 259°
2026-04-23 10:09 25.37875 55.10392 9769 ft 292 kts 259°
2026-04-23 10:10 25.37525 55.08151 10249 ft 302 kts 259°
2026-04-23 10:10 25.37157 55.05782 10384 ft 322 kts 259°
2026-04-23 10:10 25.36765 55.03266 10530 ft 341 kts 259°
2026-04-23 10:10 25.36349 55.00611 10655 ft 359 kts 259°
2026-04-23 10:11 25.35918 54.97854 10990 ft 369 kts 259°
2026-04-23 10:11 25.35465 54.95036 11542 ft 372 kts 256°
2026-04-23 10:11 25.34657 54.92320 12149 ft 373 kts 244°
2026-04-23 10:11 25.33359 54.89862 12750 ft 374 kts 233°
2026-04-23 10:12 25.31612 54.87727 13340 ft 376 kts 224°
2026-04-23 10:12 25.29874 54.85557 13905 ft 379 kts 237°
2026-04-23 10:12 25.28748 54.82926 14460 ft 381 kts 252°
2026-04-23 10:12 25.28217 54.80049 15013 ft 384 kts 264°
2026-04-23 10:13 25.28136 54.77086 15550 ft 386 kts 268°
2026-04-23 10:13 25.28306 54.74106 16076 ft 390 kts 277°
2026-04-23 10:13 25.28909 54.71177 16592 ft 392 kts 283°
2026-04-23 10:13 25.29625 54.68285 17102 ft 394 kts 283°
2026-04-23 10:14 25.30359 54.65367 17619 ft 395 kts 283°
2026-04-23 10:14 25.31103 54.62433 18109 ft 397 kts 283°
2026-04-23 10:14 25.31849 54.59490 18594 ft 398 kts 283°
2026-04-23 10:14 25.32594 54.56534 19023 ft 400 kts 283°
2026-04-23 10:15 25.33345 54.53553 19451 ft 403 kts 283°
2026-04-23 10:15 25.34120 54.50556 19865 ft 406 kts 284°
2026-04-23 10:15 25.34926 54.47562 20272 ft 408 kts 284°
2026-04-23 10:15 25.35741 54.44591 20661 ft 411 kts 284°
2026-04-23 10:16 25.36578 54.41550 21044 ft 413 kts 284°
2026-04-23 10:16 25.37412 54.38502 21414 ft 415 kts 284°
2026-04-23 10:16 25.38246 54.35429 21766 ft 418 kts 284°
2026-04-23 10:16 25.39078 54.32338 22098 ft 420 kts 284°
2026-04-23 10:17 25.39910 54.29231 22428 ft 423 kts 284°
2026-04-23 10:17 25.40742 54.26105 22741 ft 425 kts 283°
2026-04-23 10:17 25.41548 54.22957 23073 ft 426 kts 283°
2026-04-23 10:17 25.42334 54.19782 23364 ft 428 kts 282°
2026-04-23 10:18 25.43111 54.16590 23656 ft 430 kts 282°
2026-04-23 10:18 25.43889 54.13384 23933 ft 433 kts 282°
2026-04-23 10:18 25.44667 54.10198 24207 ft 435 kts 282°
2026-04-23 10:18 25.45460 54.06945 24502 ft 437 kts 282°
2026-04-23 10:19 25.46245 54.03695 24816 ft 438 kts 282°
2026-04-23 10:19 25.47028 54.00432 25134 ft 439 kts 282°
2026-04-23 10:19 25.47811 53.97160 25431 ft 440 kts 282°
2026-04-23 10:19 25.48594 53.93890 25729 ft 440 kts 282°
2026-04-23 10:20 25.49384 53.90599 26016 ft 442 kts 282°
2026-04-23 10:20 25.50163 53.87342 26298 ft 442 kts 283°
2026-04-23 10:20 25.50952 53.84037 26578 ft 443 kts 283°
2026-04-23 10:20 25.51742 53.80738 26849 ft 444 kts 283°
2026-04-23 10:21 25.52541 53.77415 27121 ft 445 kts 283°
2026-04-23 10:21 25.53337 53.74097 27442 ft 444 kts 283°
2026-04-23 10:21 25.54125 53.70796 27845 ft 442 kts 283°
2026-04-23 10:21 25.54900 53.67543 28234 ft 440 kts 283°
2026-04-23 10:22 25.55682 53.64273 28615 ft 438 kts 283°
2026-04-23 10:22 25.56459 53.61019 29005 ft 435 kts 283°
2026-04-23 10:22 25.57236 53.57775 29380 ft 433 kts 283°
2026-04-23 10:22 25.58008 53.54548 29757 ft 432 kts 283°
2026-04-23 10:23 25.58776 53.51338 29873 ft 431 kts 283°
2026-04-23 10:23 25.59540 53.48134 29900 ft 431 kts 283°
2026-04-23 10:23 25.61052 53.41760 29897 ft 430 kts 283°
2026-04-23 10:24 25.62574 53.35341 29897 ft 430 kts 283°
2026-04-23 10:24 25.64085 53.28932 29898 ft 429 kts 283°
2026-04-23 10:25 25.65588 53.22536 29895 ft 429 kts 283°
2026-04-23 10:25 25.67084 53.16137 29889 ft 428 kts 283°
2026-04-23 10:26 25.68579 53.09740 29891 ft 428 kts 283°
2026-04-23 10:26 25.70073 53.03382 29890 ft 428 kts 284°
2026-04-23 10:27 25.72489 52.97336 29888 ft 431 kts 295°
2026-04-23 10:27 25.75279 52.91458 29893 ft 430 kts 295°
2026-04-23 10:28 25.78061 52.85561 29891 ft 431 kts 295°
2026-04-23 10:28 25.80832 52.79668 29884 ft 430 kts 295°
2026-04-23 10:29 25.83603 52.73780 29887 ft 430 kts 295°
2026-04-23 10:29 25.86360 52.67930 29882 ft 430 kts 295°
2026-04-23 10:30 25.89128 52.62049 29885 ft 429 kts 295°
2026-04-23 10:30 25.91839 52.56137 29880 ft 429 kts 294°
2026-04-23 10:31 25.94446 52.50166 29880 ft 429 kts 293°
2026-04-23 10:31 25.97018 52.44224 29879 ft 429 kts 293°
2026-04-23 10:32 25.99633 52.38269 29875 ft 429 kts 294°
2026-04-23 10:32 26.02295 52.32331 29873 ft 429 kts 294°
2026-04-23 10:33 26.04966 52.26401 29873 ft 428 kts 294°
2026-04-23 10:33 26.07615 52.20481 29872 ft 428 kts 294°
2026-04-23 10:34 26.10256 52.14537 29876 ft 428 kts 294°
2026-04-23 10:34 26.12890 52.08597 29873 ft 428 kts 294°
2026-04-23 10:35 26.15527 52.02653 29873 ft 428 kts 294°
2026-04-23 10:35 26.18171 51.96698 29876 ft 429 kts 294°
2026-04-23 10:36 26.20830 51.90791 29884 ft 428 kts 294°
2026-04-23 10:36 26.23461 51.84836 29882 ft 428 kts 294°
2026-04-23 10:37 26.26076 51.78866 29890 ft 428 kts 294°
2026-04-23 10:37 26.28723 51.72915 29889 ft 428 kts 294°
2026-04-23 10:38 26.31364 51.67000 29885 ft 429 kts 294°
2026-04-23 10:38 26.34019 51.61048 29915 ft 428 kts 294°
2026-04-23 10:39 26.36670 51.55084 29911 ft 428 kts 294°
2026-04-23 10:39 26.38949 51.48986 29901 ft 425 kts 287°
2026-04-23 10:40 26.40927 51.42798 29901 ft 425 kts 287°
2026-04-23 10:40 26.42919 51.36579 29905 ft 426 kts 287°
2026-04-23 10:41 26.44915 51.30353 29905 ft 425 kts 287°
2026-04-23 10:41 26.46906 51.24123 29907 ft 425 kts 287°
2026-04-23 10:42 26.48872 51.17942 29908 ft 425 kts 287°
2026-04-23 10:42 26.50850 51.11730 29906 ft 425 kts 287°
2026-04-23 10:43 26.52828 51.05496 29907 ft 425 kts 287°
2026-04-23 10:43 26.54799 50.99295 29907 ft 425 kts 287°
2026-04-23 10:44 26.56772 50.93073 29908 ft 424 kts 287°
2026-04-23 10:44 26.58728 50.86855 29909 ft 424 kts 286°
2026-04-23 10:45 26.60652 50.80629 29909 ft 423 kts 286°
2026-04-23 10:45 26.62567 50.74404 29907 ft 423 kts 286°
2026-04-23 10:46 26.64490 50.68173 29910 ft 423 kts 286°
2026-04-23 10:46 26.66353 50.61966 29910 ft 423 kts 285°
2026-04-23 10:47 26.67880 50.56756 29908 ft 423 kts 285°
2026-04-23 10:47 26.69708 50.50510 29905 ft 423 kts 285°
2026-04-23 10:48 26.71482 50.44247 29903 ft 422 kts 284°
2026-04-23 10:48 26.73092 50.37915 29899 ft 422 kts 283°
2026-04-23 10:49 26.74662 50.31626 29893 ft 422 kts 283°
2026-04-23 10:49 26.76290 50.25307 29896 ft 422 kts 284°
2026-04-23 10:50 26.78135 50.19058 29896 ft 423 kts 286°
2026-04-23 10:50 26.80068 50.12841 29908 ft 422 kts 286°
2026-04-23 10:51 26.81958 50.06613 29908 ft 423 kts 285°
2026-04-23 10:51 26.83790 50.00408 29910 ft 423 kts 285°
2026-04-23 10:52 26.85635 49.94135 29918 ft 422 kts 285°
2026-04-23 10:52 26.87480 49.87896 29922 ft 422 kts 285°
2026-04-23 10:53 26.89317 49.81693 29921 ft 422 kts 285°
2026-04-23 10:53 26.91164 49.75440 29924 ft 422 kts 285°
2026-04-23 10:54 26.93004 49.69196 29928 ft 422 kts 285°
2026-04-23 10:54 26.94834 49.62972 29934 ft 421 kts 285°
2026-04-23 10:55 26.96669 49.56729 29937 ft 421 kts 284°
2026-04-23 10:55 26.98497 49.50489 29937 ft 421 kts 284°
2026-04-23 10:56 27.00307 49.44273 29937 ft 421 kts 284°
2026-04-23 10:56 27.02693 49.38229 29939 ft 427 kts 295°
2026-04-23 10:57 27.05614 49.32467 29940 ft 426 kts 295°
2026-04-23 10:57 27.08535 49.26669 29937 ft 427 kts 295°
2026-04-23 10:58 27.11453 49.20852 29939 ft 427 kts 294°
2026-04-23 10:58 27.14368 49.15036 29943 ft 426 kts 294°
2026-04-23 10:59 27.17257 49.09265 29942 ft 426 kts 294°
2026-04-23 10:59 27.20159 49.03463 29939 ft 426 kts 294°
2026-04-23 11:00 27.23076 48.97633 29941 ft 426 kts 294°
2026-04-23 11:00 27.25968 48.91847 29947 ft 426 kts 294°
2026-04-23 11:01 27.28864 48.86034 29948 ft 426 kts 294°
2026-04-23 11:01 27.31754 48.80223 29949 ft 425 kts 294°
2026-04-23 11:02 27.34635 48.74411 29952 ft 425 kts 294°
2026-04-23 11:02 27.37520 48.68593 29956 ft 425 kts 294°
2026-04-23 11:03 27.40397 48.62782 29957 ft 424 kts 294°
2026-04-23 11:03 27.43254 48.57023 29958 ft 423 kts 293°
2026-04-23 11:04 27.46114 48.51234 29957 ft 423 kts 293°
2026-04-23 11:04 27.48972 48.45430 29958 ft 423 kts 293°
2026-04-23 11:05 27.51822 48.39636 29961 ft 422 kts 293°
2026-04-23 11:05 27.54658 48.33877 29962 ft 422 kts 293°
2026-04-23 11:06 27.58932 48.25191 29964 ft 421 kts 292°
2026-04-23 11:07 27.61775 48.19413 29962 ft 421 kts 292°
2026-04-23 11:07 27.64599 48.13662 29963 ft 421 kts 292°
2026-04-23 11:08 27.67442 48.07867 29964 ft 421 kts 292°
2026-04-23 11:08 27.70272 48.02084 29963 ft 420 kts 292°
2026-04-23 11:09 27.73065 47.96342 29962 ft 419 kts 292°
2026-04-23 11:09 27.75870 47.90565 29960 ft 419 kts 292°
2026-04-23 11:10 27.78677 47.84795 29958 ft 418 kts 292°
2026-04-23 11:10 27.81474 47.79037 29958 ft 418 kts 292°
2026-04-23 11:11 27.84225 47.73234 29957 ft 414 kts 287°
2026-04-23 11:11 27.86177 47.67146 29956 ft 411 kts 284°
2026-04-23 11:12 27.88070 47.61044 29956 ft 411 kts 284°
2026-04-23 11:12 27.89954 47.54979 29958 ft 411 kts 284°
2026-04-23 11:13 27.91847 47.48866 29962 ft 411 kts 284°
2026-04-23 11:13 27.93734 47.42743 29979 ft 411 kts 284°
2026-04-23 11:14 27.95602 47.36676 29991 ft 411 kts 284°
2026-04-23 11:14 27.97480 47.30585 29999 ft 410 kts 284°
2026-04-23 11:15 27.99359 47.24481 30010 ft 409 kts 284°
2026-04-23 11:15 28.01227 47.18398 30012 ft 409 kts 284°
2026-04-23 11:16 28.03093 47.12311 30011 ft 409 kts 284°
2026-04-23 11:16 28.04956 47.06225 30015 ft 408 kts 284°
2026-04-23 11:17 28.06810 47.00144 30009 ft 408 kts 284°
2026-04-23 11:17 28.08648 46.94118 30009 ft 407 kts 284°
2026-04-23 11:18 28.10493 46.88042 30019 ft 407 kts 284°
2026-04-23 11:18 28.12437 46.82016 30023 ft 407 kts 285°
2026-04-23 11:19 28.14476 46.76021 30022 ft 407 kts 286°
2026-04-23 11:19 28.16504 46.70034 30030 ft 406 kts 285°
2026-04-23 11:20 28.18502 46.64047 30040 ft 405 kts 285°
2026-04-23 11:20 28.20467 46.58106 30031 ft 405 kts 285°
2026-04-23 11:21 28.22447 46.52117 30042 ft 405 kts 285°
2026-04-23 11:21 28.24425 46.46139 30022 ft 404 kts 285°
2026-04-23 11:22 28.26392 46.40176 30024 ft 403 kts 285°
2026-04-23 11:22 28.28345 46.34246 29999 ft 403 kts 285°
2026-04-23 11:23 28.30304 46.28294 29994 ft 402 kts 285°
2026-04-23 11:23 28.32258 46.22336 29993 ft 402 kts 285°
2026-04-23 11:24 28.34208 46.16381 29989 ft 402 kts 285°
2026-04-23 11:24 28.36153 46.10472 29986 ft 402 kts 286°
2026-04-23 11:25 28.38306 46.04583 29985 ft 403 kts 288°
2026-04-23 11:25 28.40549 45.98743 29982 ft 403 kts 288°
2026-04-23 11:26 28.42754 45.92914 29983 ft 402 kts 288°
2026-04-23 11:26 28.44922 45.87053 29985 ft 402 kts 288°
2026-04-23 11:27 28.47084 45.81181 29983 ft 402 kts 288°
2026-04-23 11:27 28.49253 45.75321 29981 ft 402 kts 288°
2026-04-23 11:28 28.51427 45.69444 29981 ft 402 kts 288°
2026-04-23 11:28 28.53595 45.63559 29979 ft 403 kts 288°
2026-04-23 11:29 28.55758 45.57681 29977 ft 403 kts 288°
2026-04-23 11:29 28.57557 45.52787 29976 ft 403 kts 288°
2026-04-23 11:30 28.60071 45.45938 29978 ft 403 kts 288°
2026-04-23 11:30 28.61878 45.41020 29978 ft 404 kts 288°
2026-04-23 11:31 28.64038 45.35121 29979 ft 404 kts 288°
2026-04-23 11:31 28.66194 45.29216 29980 ft 404 kts 288°
2026-04-23 11:32 28.68350 45.23290 29979 ft 404 kts 288°
2026-04-23 11:32 28.70492 45.17403 29981 ft 404 kts 288°
2026-04-23 11:33 28.72648 45.11487 29974 ft 404 kts 288°
2026-04-23 11:33 28.74794 45.05575 29972 ft 404 kts 287°
2026-04-23 11:34 28.76933 44.99674 29972 ft 404 kts 287°
2026-04-23 11:34 28.79075 44.93750 29972 ft 404 kts 287°
2026-04-23 11:35 28.81223 44.87788 29970 ft 404 kts 287°
2026-04-23 11:35 28.83352 44.81895 29969 ft 404 kts 288°
2026-04-23 11:36 28.85459 44.75957 29970 ft 402 kts 284°
2026-04-23 11:36 28.86393 44.69746 29975 ft 396 kts 272°
2026-04-23 11:37 28.86882 44.63488 29977 ft 396 kts 273°
2026-04-23 11:37 28.87386 44.57237 29990 ft 395 kts 273°
2026-04-23 11:38 28.87891 44.50983 29990 ft 395 kts 273°
2026-04-23 11:38 28.88396 44.44728 29980 ft 395 kts 273°
2026-04-23 11:39 28.88886 44.38522 29972 ft 394 kts 272°
2026-04-23 11:39 28.89373 44.32295 29958 ft 394 kts 272°
2026-04-23 11:40 28.89850 44.26049 29959 ft 395 kts 272°
2026-04-23 11:40 28.90330 44.19821 29963 ft 396 kts 273°
2026-04-23 11:41 28.90817 44.13550 29963 ft 395 kts 272°
2026-04-23 11:41 28.91296 44.07296 29965 ft 395 kts 272°
2026-04-23 11:42 28.91762 44.01091 29966 ft 395 kts 272°
2026-04-23 11:42 28.92233 43.94821 29970 ft 395 kts 272°
2026-04-23 11:43 28.92703 43.88567 29970 ft 395 kts 272°
2026-04-23 11:43 28.93167 43.82335 29971 ft 394 kts 272°
2026-04-23 11:44 28.93631 43.76116 29966 ft 395 kts 272°
2026-04-23 11:44 28.94089 43.69869 29965 ft 395 kts 272°
2026-04-23 11:45 28.94542 43.63600 29969 ft 395 kts 272°
2026-04-23 11:45 28.94997 43.57346 29986 ft 395 kts 272°
2026-04-23 11:46 28.95446 43.51090 29985 ft 395 kts 272°
2026-04-23 11:46 28.95887 43.44874 29978 ft 394 kts 272°
2026-04-23 11:47 28.96336 43.38625 29974 ft 394 kts 272°
2026-04-23 11:47 28.96782 43.32383 29966 ft 395 kts 272°
2026-04-23 11:48 28.97222 43.26128 29965 ft 395 kts 272°
2026-04-23 11:48 28.97658 43.19872 29964 ft 395 kts 272°
2026-04-23 11:49 28.98086 43.13607 29961 ft 396 kts 272°
2026-04-23 11:49 28.98515 43.07369 29961 ft 395 kts 272°
2026-04-23 11:50 28.98945 43.01096 29965 ft 396 kts 272°
2026-04-23 11:50 28.99377 42.94825 29965 ft 396 kts 272°
2026-04-23 11:51 28.99797 42.88571 29961 ft 395 kts 272°
2026-04-23 11:51 29.00213 42.82334 29959 ft 395 kts 272°
2026-04-23 11:52 29.00626 42.76037 29965 ft 397 kts 272°
2026-04-23 11:52 29.01042 42.69790 29966 ft 397 kts 272°
2026-04-23 11:53 29.01455 42.63474 29968 ft 397 kts 272°
2026-04-23 11:53 29.01865 42.57163 29971 ft 397 kts 272°
2026-04-23 11:54 29.02268 42.50893 29974 ft 397 kts 272°
2026-04-23 11:54 29.02675 42.44591 29977 ft 397 kts 272°
2026-04-23 11:55 29.03076 42.38297 29974 ft 397 kts 272°
2026-04-23 11:55 29.03472 42.32032 29972 ft 397 kts 272°
2026-04-23 11:56 29.03864 42.25706 29972 ft 398 kts 272°
2026-04-23 11:56 29.04251 42.19394 29973 ft 398 kts 272°
2026-04-23 11:57 29.04642 42.13084 29975 ft 397 kts 272°
2026-04-23 11:57 29.05030 42.06789 29972 ft 397 kts 272°
2026-04-23 11:58 29.05417 42.00503 29967 ft 396 kts 272°
2026-04-23 11:58 29.05797 41.94216 29970 ft 397 kts 272°
2026-04-23 11:59 29.06170 41.87937 29974 ft 397 kts 272°
2026-04-23 11:59 29.06537 41.81643 29974 ft 397 kts 272°
2026-04-23 12:00 29.06901 41.75341 29975 ft 397 kts 271°
2026-04-23 12:00 29.07277 41.69026 29977 ft 398 kts 272°
2026-04-23 12:01 29.07640 41.62736 29982 ft 399 kts 271°
2026-04-23 12:01 29.08002 41.56381 29988 ft 399 kts 271°
2026-04-23 12:02 29.08356 41.50077 29989 ft 399 kts 271°
2026-04-23 12:02 29.08706 41.43744 29992 ft 399 kts 271°
2026-04-23 12:03 29.09058 41.37422 29993 ft 398 kts 271°
2026-04-23 12:03 29.09416 41.31092 30015 ft 398 kts 271°
2026-04-23 12:04 29.09767 41.24772 30028 ft 398 kts 271°
2026-04-23 12:04 29.10115 41.18448 30005 ft 398 kts 271°
2026-04-23 12:05 29.10460 41.12156 30019 ft 398 kts 271°
2026-04-23 12:05 29.10802 41.05834 30001 ft 399 kts 271°
2026-04-23 12:06 29.11131 40.99498 29999 ft 399 kts 271°
2026-04-23 12:06 29.11633 40.89985 29999 ft 399 kts 271°
2026-04-23 12:07 29.11968 40.83641 29994 ft 399 kts 271°
2026-04-23 12:07 29.12299 40.77297 30011 ft 400 kts 271°
2026-04-23 12:08 29.12621 40.70984 30000 ft 400 kts 271°
2026-04-23 12:08 29.12939 40.64632 29999 ft 400 kts 271°
2026-04-23 12:09 29.13251 40.58280 29994 ft 399 kts 269°
2026-04-23 12:09 29.13090 40.51933 29993 ft 398 kts 266°
2026-04-23 12:10 29.12889 40.45647 29992 ft 398 kts 266°
2026-04-23 12:10 29.12687 40.39312 29987 ft 399 kts 266°
2026-04-23 12:11 29.12511 40.34031 29988 ft 399 kts 266°
2026-04-23 12:11 29.12261 40.26641 29994 ft 400 kts 266°
2026-04-23 12:12 29.12039 40.20275 29994 ft 400 kts 266°
2026-04-23 12:12 29.11847 40.14992 29998 ft 400 kts 266°
2026-04-23 12:13 29.11623 40.08639 29999 ft 399 kts 266°
2026-04-23 12:13 29.11400 40.02271 30000 ft 399 kts 266°
2026-04-23 12:14 29.11172 39.95956 29999 ft 400 kts 266°
2026-04-23 12:14 29.10946 39.89589 30022 ft 400 kts 266°
2026-04-23 12:15 29.10919 39.83235 30015 ft 401 kts 268°
2026-04-23 12:15 29.11011 39.76842 30001 ft 402 kts 269°
2026-04-23 12:16 29.11076 39.70457 29997 ft 401 kts 268°
2026-04-23 12:16 29.11093 39.64074 29998 ft 402 kts 268°
2026-04-23 12:17 29.11099 39.57672 29998 ft 402 kts 268°
2026-04-23 12:17 29.11108 39.51315 29996 ft 402 kts 268°
2026-04-23 12:18 29.11119 39.44923 29994 ft 401 kts 268°
2026-04-23 12:18 29.11127 39.38530 29992 ft 401 kts 268°
2026-04-23 12:19 29.11131 39.32141 29991 ft 401 kts 268°
2026-04-23 12:19 29.11135 39.25792 29991 ft 401 kts 268°
2026-04-23 12:20 29.11133 39.19399 29990 ft 401 kts 268°
2026-04-23 12:20 29.11125 39.13005 29991 ft 402 kts 268°
2026-04-23 12:21 29.11112 39.06615 29981 ft 402 kts 268°
2026-04-23 12:21 29.11103 39.00208 29971 ft 402 kts 268°
2026-04-23 12:22 29.11092 38.93801 29969 ft 403 kts 268°
2026-04-23 12:22 29.11077 38.87396 29967 ft 403 kts 268°
2026-04-23 12:23 29.11049 38.81023 29964 ft 403 kts 267°
2026-04-23 12:23 29.11016 38.74602 29960 ft 403 kts 267°
2026-04-23 12:24 29.10983 38.68191 29957 ft 403 kts 267°
2026-04-23 12:24 29.10950 38.61776 29952 ft 403 kts 267°
2026-04-23 12:25 29.10912 38.55390 29944 ft 403 kts 267°
2026-04-23 12:25 29.10865 38.48981 29962 ft 403 kts 267°
2026-04-23 12:26 29.10819 38.42551 29952 ft 403 kts 267°
2026-04-23 12:26 29.10776 38.36164 29942 ft 403 kts 267°
2026-04-23 12:27 29.10722 38.29744 29935 ft 403 kts 267°
2026-04-23 12:27 29.10658 38.23371 29951 ft 403 kts 267°
2026-04-23 12:28 29.10602 38.16988 29941 ft 403 kts 267°
2026-04-23 12:28 29.10546 38.10554 29933 ft 404 kts 267°
2026-04-23 12:29 29.10488 38.04120 29923 ft 404 kts 267°
2026-04-23 12:29 29.10424 37.97686 29917 ft 404 kts 267°
2026-04-23 12:30 29.10355 37.91282 29908 ft 405 kts 267°
2026-04-23 12:30 29.10280 37.84828 29904 ft 406 kts 267°
2026-04-23 12:31 29.10202 37.78361 29904 ft 406 kts 267°
2026-04-23 12:31 29.10120 37.71932 29906 ft 406 kts 267°
2026-04-23 12:32 29.10039 37.65462 29909 ft 406 kts 267°
2026-04-23 12:32 29.09950 37.59005 29909 ft 406 kts 267°
2026-04-23 12:33 29.09860 37.52569 29908 ft 406 kts 267°
2026-04-23 12:33 29.09786 37.46108 29907 ft 406 kts 267°
2026-04-23 12:34 29.09748 37.39675 29906 ft 406 kts 267°
2026-04-23 12:34 29.09707 37.33220 29904 ft 406 kts 267°
2026-04-23 12:35 29.09657 37.26766 29899 ft 406 kts 267°
2026-04-23 12:35 29.09600 37.20313 29894 ft 406 kts 267°
2026-04-23 12:36 29.09542 37.13861 29888 ft 405 kts 267°
2026-04-23 12:36 29.09480 37.07401 29888 ft 406 kts 267°
2026-04-23 12:37 29.09410 37.00936 29887 ft 406 kts 267°
2026-04-23 12:37 29.09339 36.94485 29885 ft 406 kts 267°
2026-04-23 12:38 29.09271 36.88057 29883 ft 406 kts 267°
2026-04-23 12:38 29.09201 36.81597 29885 ft 406 kts 267°
2026-04-23 12:39 29.09123 36.75133 29888 ft 406 kts 267°
2026-04-23 12:39 29.09038 36.68663 29888 ft 407 kts 267°
2026-04-23 12:40 29.08956 36.62198 29887 ft 407 kts 267°
2026-04-23 12:40 29.08870 36.55726 29882 ft 407 kts 267°
2026-04-23 12:41 29.08773 36.49238 29877 ft 407 kts 267°
2026-04-23 12:41 29.08649 36.42781 29880 ft 407 kts 266°
2026-04-23 12:42 29.08462 36.36305 29878 ft 407 kts 266°
2026-04-23 12:42 29.08266 36.29837 29876 ft 407 kts 266°
2026-04-23 12:43 29.08085 36.23416 29872 ft 406 kts 266°
2026-04-23 12:43 29.07905 36.16950 29871 ft 407 kts 266°
2026-04-23 12:44 29.07719 36.10465 29873 ft 407 kts 266°
2026-04-23 12:44 29.07532 36.04019 29875 ft 407 kts 266°
2026-04-23 12:45 29.07334 35.97546 29871 ft 407 kts 266°
2026-04-23 12:45 29.07139 35.91069 29865 ft 408 kts 266°
2026-04-23 12:46 29.06942 35.84577 29865 ft 409 kts 266°
2026-04-23 12:46 29.06739 35.78110 29869 ft 409 kts 266°
2026-04-23 12:47 29.06534 35.71603 29873 ft 410 kts 266°
2026-04-23 12:47 29.06324 35.65078 29875 ft 410 kts 266°
2026-04-23 12:48 29.06113 35.58554 29878 ft 410 kts 266°
2026-04-23 12:48 29.05898 35.52032 29875 ft 410 kts 266°
2026-04-23 12:49 29.05681 35.45563 29874 ft 410 kts 266°
2026-04-23 12:49 29.05456 35.39042 29873 ft 410 kts 266°
2026-04-23 12:50 29.05230 35.32550 29871 ft 410 kts 266°
2026-04-23 12:50 29.05002 35.26039 29871 ft 410 kts 266°
2026-04-23 12:51 29.04773 35.19518 29875 ft 411 kts 266°
2026-04-23 12:51 29.04539 35.12993 29889 ft 410 kts 265°
2026-04-23 12:52 29.04298 35.06511 29878 ft 410 kts 265°
2026-04-23 12:52 29.04053 34.99982 29877 ft 411 kts 265°
2026-04-23 12:53 29.03812 34.93440 29872 ft 411 kts 266°
2026-04-23 12:53 29.03566 34.86911 29868 ft 411 kts 265°
2026-04-23 12:54 29.03363 34.80410 29868 ft 411 kts 267°
2026-04-23 12:54 29.03285 34.73863 29867 ft 412 kts 267°
2026-04-23 12:55 29.03457 34.67318 29865 ft 415 kts 276°
2026-04-23 12:55 29.05070 34.60937 29865 ft 419 kts 285°
2026-04-23 12:56 29.06618 34.55671 29861 ft 420 kts 284°
2026-04-23 12:56 29.08468 34.49337 29861 ft 420 kts 284°
2026-04-23 12:57 29.10303 34.43029 29864 ft 421 kts 284°
2026-04-23 12:57 29.12163 34.36661 29864 ft 422 kts 284°
2026-04-23 12:58 29.14027 34.30288 29861 ft 422 kts 284°
2026-04-23 12:58 29.15887 34.23907 29860 ft 423 kts 284°
2026-04-23 12:59 29.17743 34.17517 29856 ft 423 kts 285°
2026-04-23 12:59 29.19595 34.11116 29857 ft 423 kts 285°
2026-04-23 13:00 29.21440 34.04721 29856 ft 423 kts 285°
2026-04-23 13:00 29.23277 33.98358 29855 ft 423 kts 285°
2026-04-23 13:01 29.25131 33.91937 29850 ft 424 kts 285°
2026-04-23 13:01 29.26979 33.85509 29850 ft 425 kts 285°
2026-04-23 13:02 29.28818 33.79104 29851 ft 425 kts 285°
2026-04-23 13:02 29.30672 33.72626 29850 ft 426 kts 285°
2026-04-23 13:03 29.32512 33.66213 29851 ft 426 kts 285°
2026-04-23 13:03 29.34360 33.59762 29855 ft 426 kts 285°
2026-04-23 13:04 29.36201 33.53285 29864 ft 426 kts 285°
2026-04-23 13:04 29.38040 33.46820 29871 ft 426 kts 285°
2026-04-23 13:05 29.39872 33.40387 29875 ft 427 kts 285°
2026-04-23 13:05 29.41706 33.33910 29875 ft 426 kts 284°
2026-04-23 13:06 29.44448 33.24182 29884 ft 426 kts 285°
2026-04-23 13:07 29.46271 33.17712 29887 ft 426 kts 285°
2026-04-23 13:07 29.48082 33.11268 29891 ft 426 kts 285°
2026-04-23 13:08 29.49897 33.04794 29760 ft 427 kts 285°
2026-04-23 13:08 29.50807 33.01544 29506 ft 428 kts 285°
2026-04-23 13:08 29.51716 32.98290 29256 ft 428 kts 285°
2026-04-23 13:08 29.52626 32.95027 29006 ft 429 kts 285°
2026-04-23 13:09 29.53538 32.91753 28755 ft 430 kts 285°
2026-04-23 13:09 29.54456 32.88469 28506 ft 431 kts 285°
2026-04-23 13:09 29.55372 32.85186 28256 ft 432 kts 285°
2026-04-23 13:09 29.56289 32.81883 28001 ft 433 kts 285°
2026-04-23 13:10 29.57205 32.78583 27754 ft 434 kts 285°
2026-04-23 13:10 29.58125 32.75278 27502 ft 436 kts 285°
2026-04-23 13:10 29.59039 32.71991 27255 ft 437 kts 285°
2026-04-23 13:10 29.59963 32.68660 27002 ft 437 kts 285°
2026-04-23 13:11 29.60835 32.65302 26752 ft 438 kts 284°
2026-04-23 13:11 29.61633 32.61917 26502 ft 439 kts 282°
2026-04-23 13:11 29.62382 32.58509 26252 ft 439 kts 282°
2026-04-23 13:11 29.63115 32.55091 26000 ft 440 kts 282°
2026-04-23 13:12 29.63855 32.51657 25748 ft 441 kts 282°
2026-04-23 13:12 29.64597 32.48272 25504 ft 443 kts 282°
2026-04-23 13:12 29.65365 32.44835 25249 ft 444 kts 283°
2026-04-23 13:12 29.66148 32.41377 24992 ft 445 kts 283°
2026-04-23 13:13 29.66933 32.37929 24745 ft 445 kts 283°
2026-04-23 13:13 29.67715 32.34486 24497 ft 444 kts 283°
2026-04-23 13:13 29.68491 32.31056 24246 ft 443 kts 283°
2026-04-23 13:13 29.69265 32.27626 23996 ft 442 kts 283°
2026-04-23 13:14 29.70031 32.24218 23508 ft 437 kts 283°
2026-04-23 13:14 29.70788 32.20838 22569 ft 435 kts 283°
2026-04-23 13:14 29.71532 32.17508 21749 ft 431 kts 283°
2026-04-23 13:14 29.72274 32.14173 20948 ft 428 kts 283°
2026-04-23 13:15 29.73008 32.10867 20168 ft 424 kts 283°
2026-04-23 13:15 29.73734 32.07591 19411 ft 420 kts 283°
2026-04-23 13:15 29.74457 32.04338 18674 ft 416 kts 283°
2026-04-23 13:15 29.75172 32.01119 17965 ft 412 kts 283°
2026-04-23 13:16 29.75871 31.97982 17286 ft 408 kts 283°
2026-04-23 13:16 29.76570 31.94837 16645 ft 402 kts 283°
2026-04-23 13:16 29.77261 31.91731 16033 ft 397 kts 283°
2026-04-23 13:16 29.78000 31.88687 15433 ft 393 kts 288°
2026-04-23 13:17 29.79130 31.85845 14846 ft 390 kts 298°
2026-04-23 13:17 29.80655 31.83268 14274 ft 386 kts 305°
2026-04-23 13:17 29.82254 31.80799 13684 ft 382 kts 304°
2026-04-23 13:17 29.83812 31.78388 13079 ft 367 kts 304°
2026-04-23 13:18 29.85336 31.76031 12477 ft 366 kts 304°
2026-04-23 13:18 29.86854 31.73679 11844 ft 364 kts 304°
2026-04-23 13:18 29.88360 31.71342 11219 ft 361 kts 305°
2026-04-23 13:18 29.89817 31.69085 10830 ft 338 kts 305°
2026-04-23 13:19 29.91168 31.66996 10700 ft 312 kts 305°
2026-04-23 13:19 29.92430 31.65045 10384 ft 296 kts 305°
2026-04-23 13:19 29.93648 31.63155 10145 ft 293 kts 306°
2026-04-23 13:19 29.94854 31.61274 9986 ft 291 kts 306°
2026-04-23 13:20 29.96059 31.59393 9915 ft 294 kts 306°
2026-04-23 13:20 29.97278 31.57499 9781 ft 293 kts 306°
2026-04-23 13:20 29.98476 31.55639 9675 ft 292 kts 306°
2026-04-23 13:20 29.99688 31.53758 9556 ft 291 kts 306°
2026-04-23 13:21 30.00898 31.51879 9429 ft 291 kts 306°
2026-04-23 13:21 30.02100 31.50001 9296 ft 290 kts 306°
2026-04-23 13:21 30.03297 31.48129 8763 ft 289 kts 306°
2026-04-23 13:21 30.04472 31.46284 8158 ft 286 kts 306°
2026-04-23 13:22 30.05661 31.44415 7542 ft 283 kts 306°
2026-04-23 13:22 30.06807 31.42617 6956 ft 280 kts 307°
2026-04-23 13:22 30.07785 31.40694 6369 ft 277 kts 288°
2026-04-23 13:22 30.07991 31.38519 5789 ft 274 kts 263°
2026-04-23 13:23 30.07374 31.36450 5201 ft 276 kts 238°
2026-04-23 13:23 30.06153 31.34715 4592 ft 281 kts 230°
2026-04-23 13:23 30.04886 31.33040 4428 ft 268 kts 230°
2026-04-23 13:23 30.03696 31.31469 4363 ft 253 kts 230°
2026-04-23 13:24 30.02584 31.30003 4318 ft 239 kts 230°
2026-04-23 13:24 30.01512 31.28586 4230 ft 229 kts 230°
2026-04-23 13:24 30.00490 31.27229 4147 ft 219 kts 230°
2026-04-23 13:24 29.99514 31.25931 4051 ft 210 kts 231°
2026-04-23 13:25 29.98563 31.24664 3952 ft 208 kts 231°
2026-04-23 13:25 29.97621 31.23412 3871 ft 202 kts 231°
2026-04-23 13:25 29.96842 31.22152 3773 ft 184 kts 251°
2026-04-23 13:25 29.96727 31.20797 3669 ft 161 kts 283°
2026-04-23 13:26 29.97159 31.19694 3573 ft 144 kts 311°
2026-04-23 13:26 29.97917 31.19000 3496 ft 141 kts 335°
2026-04-23 13:26 29.98865 31.18770 3433 ft 140 kts
2026-04-23 13:26 29.99803 31.19050 3357 ft 142 kts 26°
2026-04-23 13:27 30.00549 31.19802 3274 ft 145 kts 54°
2026-04-23 13:27 30.00721 31.20941 3213 ft 149 kts 90°
2026-04-23 13:27 30.00857 31.22117 3101 ft 147 kts 75°
2026-04-23 13:27 30.01058 31.23285 3040 ft 148 kts 77°
2026-04-23 13:28 30.01252 31.24431 3012 ft 147 kts 76°
2026-04-23 13:28 30.01448 31.25592 3011 ft 147 kts 76°
2026-04-23 13:28 30.01645 31.26756 2989 ft 148 kts 77°
2026-04-23 13:28 30.01850 31.27928 2883 ft 148 kts 73°
2026-04-23 13:29 30.02226 31.29019 2726 ft 145 kts 59°
2026-04-23 13:29 30.02756 31.29997 2559 ft 143 kts 52°
2026-04-23 13:29 30.03353 31.30917 2389 ft 143 kts 48°
2026-04-23 13:29 30.03977 31.31805 2194 ft 142 kts 47°
2026-04-23 13:30 30.04611 31.32676 2003 ft 141 kts 47°
2026-04-23 13:30 30.05251 31.33540 1816 ft 141 kts 46°
2026-04-23 13:30 30.05888 31.34392 1638 ft 140 kts 46°
2026-04-23 13:30 30.06523 31.35238 1452 ft 139 kts 46°
2026-04-23 13:31 30.07157 31.36081 1270 ft 139 kts 46°
2026-04-23 13:31 30.07790 31.36924 1082 ft 138 kts 46°
2026-04-23 13:31 30.08422 31.37764 894 ft 138 kts 46°
2026-04-23 13:31 30.09042 31.38589 719 ft 138 kts 47°
2026-04-23 13:32 30.09670 31.39427 533 ft 138 kts 47°
2026-04-23 13:32 30.10291 31.40258 396 ft 130 kts 47°
2026-04-23 13:32 30.10807 31.40937 385 ft 79 kts 50°
2026-04-23 13:32 30.11004 31.41207 387 ft 27 kts 49°
2026-04-23 13:33 30.11089 31.41317 386 ft 17 kts 48°
2026-04-23 13:33 30.11171 31.41423 387 ft 18 kts 48°
2026-04-23 13:33 30.11206 31.41463 386 ft 15 kts 41°
2026-04-23 13:33 30.11270 31.41516 385 ft 13 kts 33°
2026-04-23 13:34 30.11348 31.41566 382 ft 14 kts 25°
2026-04-23 13:34 30.11426 31.41601 379 ft 11 kts 20°
2026-04-23 13:34 30.11514 31.41626 375 ft 16 kts
2026-04-23 13:34 30.11552 31.41535 373 ft 14 kts 223°
2026-04-23 13:35 30.11508 31.41482 369 ft 7 kts 226°
2026-04-23 13:35 30.11477 31.41445 375 ft 6 kts 226°
2026-04-23 13:35 30.11453 31.41415 372 ft 5 kts 227°
2026-04-23 13:35 30.11435 31.41392 370 ft 4 kts 228°
2026-04-23 13:36 30.11409 31.41353 373 ft 7 kts 240°
2026-04-23 13:36 30.11405 31.41281 367 ft 11 kts 285°
2026-04-23 13:36 30.11419 31.41218 366 ft 14 kts 263°
2026-04-23 13:36 30.11347 31.41102 366 ft 13 kts 229°
2026-04-23 13:37 30.11293 31.41030 368 ft 11 kts 229°
2026-04-23 13:37 30.11261 31.40988 366 ft 10 kts 229°
2026-04-23 13:37 30.11218 31.40931 364 ft 9 kts 229°
2026-04-23 13:37 30.11181 31.40881 367 ft 8 kts 229°
2026-04-23 13:38 30.11149 31.40839 364 ft 7 kts 229°
2026-04-23 13:38 30.11122 31.40802 364 ft 6 kts 229°
2026-04-23 13:38 30.11085 31.40753 366 ft 12 kts 229°
2026-04-23 13:38 30.11028 31.40677 364 ft 12 kts 229°
2026-04-23 13:39 30.10976 31.40608 366 ft 11 kts 229°
2026-04-23 13:39 30.10930 31.40545 364 ft 10 kts 234°
2026-04-23 13:39 30.10923 31.40467 362 ft 11 kts 283°
2026-04-23 13:39 30.10947 31.40367 357 ft 15 kts 286°
2026-04-23 13:40 30.10942 31.40241 359 ft 16 kts 232°
2026-04-23 13:40 30.10877 31.40155 359 ft 12 kts 227°
2026-04-23 13:40 30.10841 31.40103 355 ft 7 kts 253°
2026-04-23 13:40 30.10830 31.40045 355 ft 8 kts 256°
2026-04-23 13:41 30.10821 31.40005 351 ft 0 kts 256°